RH
25 32 83 95 91 94 99 99 99 90 26 23 30 36 39 43 42 44 45 45 45 45 43 40 38 35 32 31 31 33 34 33 32 31 29 27 26 24
16 24 30 56 95 97 99 98 94 86 55 32 20 18 16 15 14 14 14 19 24 29 35 39 39 38 37 35 34 33 32 30 30 30 30 30 29 28
18 19 23 30 31 44 78 71 57 49 36 28 26 26 25 28 32 30 26 24 20 15 14 15 15 17 16 17 16 12 11 11 12 12 12 12 12 14
17 18 18 20 25 32 34 32 26 25 31 44 56 58 52 41 29 26 26 24 22 15 14 20 24 20 12 11 12 15 21 21 20 19 17 13 12 10
13 18 19 17 16 18 20 22 23 25 28 26 25 26 25 25 27 27 26 24 20 14 10 9 9 8 8 7 7 7 6 7 9 13 21 24 25 24
16 11 14 22 20 17 15 15 14 14 16 15 14 12 12 12 12 12 11 11 10 10 10 9 9 8 8 9 10 10 9 7 6 6 8 9 14 23
18 16 13 11 23 24 17 14 13 13 13 12 12 11 11 11 12 13 13 13 12 12 11 10 9 9 12 12 13 12 9 8 6 5 5 5 6 11
15 14 12 13 11 17 29 24 16 14 14 14 14 14 15 15 15 15 15 14 14 14 13 12 12 12 12 13 12 10 8 8 7 7 6 4 5 8
16 17 17 12 13 12 11 28 31 23 19 18 17 17 17 18 20 20 20 19 18 17 16 18 17 17 18 17 16 16 13 11 8 8 6 4 4 6
21 21 20 20 14 15 14 12 18 34 28 22 22 22 23 24 26 25 26 24 21 21 22 25 26 26 25 26 24 18 12 9 8 6 4 4 6 21
26 29 31 30 31 28 23 15 14 14 36 37 25 23 23 24 28 31 33 35 35 34 33 36 36 33 35 35 25 15 11 8 7 5 7 12 14 17
25 30 36 40 41 40 36 33 31 17 15 38 48 26 21 22 24 25 25 20 20 36 49 53 51 44 43 34 21 14 11 8 5 9 21 24 23 24
23 28 33 38 38 34 28 17 20 27 18 17 49 61 32 18 16 15 14 13 11 20 32 45 63 54 45 32 20 13 9 6 6 20 26 24 23 24
23 30 30 33 34 34 35 19 12 22 21 30 58 66 62 34 11 10 9 8 8 8 21 35 53 66 42 24 14 10 8 5 10 29 32 27 28 32
29 33 34 37 38 40 42 27 18 21 22 26 37 57 74 65 44 39 51 55 42 20 13 26 54 55 32 21 10 9 8 9 18 37 38 30 27 20
34 36 32 36 36 42 46 43 25 23 24 26 25 27 50 76 76 79 84 83 75 61 38 54 72 33 23 19 10 10 10 13 38 60 47 36 22 23
33 33 39 74 71 47 38 38 46 31 24 26 29 29 34 43 52 48 53 58 85 80 56 65 68 20 15 9 10 12 18 36 61 59 45 40 24 27
61 52 72 82 83 80 67 62 57 66 62 35 29 32 36 44 33 30 61 91 91 67 68 86 23 15 15 13 14 18 29 70 78 58 42 37 36 32
84 83 89 86 88 88 87 94 83 84 94 81 56 42 44 48 41 51 82 95 86 91 99 52 12 8 8 9 12 16 47 74 73 55 40 36 38 43
95 96 95 92 97 98 100 100 88 85 82 84 87 72 72 67 84 95 97 100 100 98 89 29 9 8 10 8 16 22 69 82 69 58 50 47 50 50
92 90 95 95 96 96 96 99 97 85 78 100 100 98 99 100 99 99 100 100 100 99 67 12 8 9 7 6 30 59 79 78 67 66 65 65 62 55
100 100 99 100 100 100 99 100 100 95 90 96 100 99 100 99 99 100 100 100 100 91 22 8 7 6 6 18 55 83 86 73 69 74 76 71 62 38
99 100 100 100 100 100 99 98 100 100 98 100 98 100 100 98 99 99 100 100 99 45 10 8 7 7 14 45 78 89 93 89 83 74 72 60 28 20
Wind_Speed
48 35 30 19 11 10 13 17 23 25 35 39 38 39 41 42 43 45 46 47 47 46 48 48 47 49 51 53 54 54 55 57 58 58 59 59 59 59
41 44 34 27 16 4 3 4 8 15 22 29 34 38 40 41 42 45 46 48 48 46 46 46 45 46 49 51 54 57 59 61 62 63 64 65 65 65
37 38 37 35 24 17 11 7 6 9 10 16 20 23 25 27 30 34 36 39 41 45 48 49 48 48 49 49 51 56 60 66 69 71 72 72 72 72
30 31 32 31 28 27 24 17 10 7 9 13 17 22 26 28 31 32 32 33 34 33 32 32 32 32 34 37 40 43 47 50 52 56 60 67 69 74
28 27 26 27 26 22 20 17 15 13 10 9 8 8 9 9 11 13 15 16 17 18 20 24 28 32 36 38 41 43 45 48 51 53 55 57 58 58
27 26 24 22 21 20 19 16 14 13 11 10 10 11 12 14 14 16 19 20 23 27 30 31 35 38 41 44 45 48 50 51 52 55 57 58 59 60
27 26 25 23 20 19 18 17 16 16 16 16 17 18 20 22 24 24 25 28 30 33 35 37 41 44 46 47 49 50 51 55 55 55 56 57 58 59
28 29 28 25 22 21 21 20 21 20 20 22 24 25 26 27 28 28 30 32 34 36 39 40 42 45 47 46 47 50 51 53 58 61 59 58 59 59
30 30 30 28 26 24 23 23 24 25 26 26 27 28 29 32 33 34 35 37 38 39 42 44 45 47 49 49 50 52 55 56 58 61 63 62 61 61
33 33 33 32 29 28 28 28 27 28 30 29 29 30 31 32 34 36 39 42 43 44 45 45 49 52 53 53 55 55 56 58 59 62 60 58 60 62
36 36 34 34 34 33 34 33 33 33 33 34 35 35 35 35 36 38 40 42 44 45 47 48 50 50 53 54 56 57 59 60 61 58 52 49 48 49
40 40 38 35 37 38 39 40 39 37 36 36 38 39 40 40 41 42 43 44 46 48 51 52 52 51 52 54 56 58 61 62 59 52 46 45 46 46
42 41 41 39 40 41 41 41 40 40 39 39 39 40 42 43 45 46 48 50 51 51 51 56 56 52 52 53 56 58 60 60 54 48 47 47 48 50
43 43 42 42 41 41 41 40 39 39 39 39 39 40 42 45 47 49 51 52 54 56 55 55 61 52 52 53 56 58 60 58 51 48 48 50 51 49
43 43 43 44 43 43 43 40 38 38 39 40 41 42 42 44 46 48 50 53 55 56 58 58 61 51 52 53 56 59 58 57 51 48 50 50 45 44
45 45 45 45 45 44 44 44 42 41 42 43 45 46 46 48 49 48 49 51 56 59 59 62 53 51 54 55 57 60 59 52 49 49 49 48 43 42
45 45 47 49 47 45 44 45 46 47 47 48 49 49 50 50 53 54 55 57 60 59 60 61 49 53 54 57 60 60 57 52 48 47 46 45 43 41
46 47 49 47 46 45 45 46 48 50 51 52 52 52 51 51 52 53 55 58 58 57 60 49 52 54 54 58 59 58 53 49 48 47 43 41 42 41
45 47 47 47 46 47 48 49 50 52 52 52 54 53 52 51 53 55 59 58 56 58 47 47 54 55 58 61 59 54 51 47 46 45 40 38 38 40
48 46 49 50 50 50 50 52 52 53 53 54 54 54 52 54 58 59 59 57 56 48 42 49 53 54 57 57 55 52 46 46 44 39 38 39 38 38
49 49 52 53 53 53 53 52 53 54 55 57 55 55 55 57 58 56 54 49 48 43 45 51 52 54 56 55 50 47 44 42 39 37 37 37 39 39
53 54 55 55 55 56 54 53 54 54 57 58 55 56 56 53 55 54 52 51 44 42 49 51 52 54 53 50 45 44 43 39 36 35 34 34 33 32
56 57 58 57 55 56 56 55 54 55 58 58 57 55 50 52 52 50 49 46 42 45 48 50 51 52 50 45 42 41 38 37 35 35 33 31 31 32
Wind_Direction
6 3 356 342 307 261 250 238 229 227 235 242 248 254 258 261 262 264 266 268 269 268 269 269 268 267 268 269 271 272 271 270 270 269 269 269 269 270
2 9 18 15 7 345 234 200 218 229 236 243 248 252 257 261 265 267 268 269 270 271 272 274 274 273 273 272 271 270 270 270 269 268 268 267 266 265
4 8 10 25 30 21 3 329 279 258 242 247 254 258 261 265 269 269 268 271 273 271 268 269 273 277 279 276 274 273 272 271 271 271 270 270 268 266
359 3 8 12 14 25 37 37 20 334 295 279 272 271 273 274 277 276 274 274 274 276 276 277 276 279 283 286 285 282 278 275 273 271 270 269 268 266
356 359 359 2 5 8 12 14 17 21 21 13 0 342 326 316 305 297 293 292 291 289 287 289 294 295 295 294 295 293 291 285 280 278 275 273 272 272
343 347 353 353 351 351 349 349 350 349 349 343 333 322 316 313 311 307 302 298 295 293 294 293 294 297 300 301 300 299 298 294 287 281 277 275 273 273
331 334 336 341 339 332 327 324 319 317 315 310 307 304 302 299 300 301 300 300 300 298 293 289 290 293 296 299 298 298 299 295 293 289 282 279 277 274
323 325 326 323 324 323 315 305 301 298 297 297 298 298 297 297 294 293 294 295 294 294 293 292 290 291 294 297 297 298 297 295 291 290 290 284 278 273
316 315 316 314 307 307 308 304 295 289 288 288 288 290 290 290 292 291 292 290 291 291 292 295 295 296 298 299 300 302 301 295 292 290 291 285 278 273
320 315 312 311 308 302 300 298 297 290 284 281 283 285 286 288 290 290 289 289 289 290 291 294 296 298 299 300 303 305 303 300 299 297 291 282 276 270
319 315 310 307 306 304 301 298 294 292 290 285 284 282 282 283 285 286 288 291 292 293 293 295 298 300 303 305 306 307 307 304 302 297 290 286 283 280
315 313 309 307 306 305 303 299 296 289 288 290 285 283 283 284 285 286 287 289 291 293 296 298 299 300 303 305 306 308 307 306 302 292 286 285 283 283
311 310 307 305 304 304 304 301 293 290 287 288 289 285 283 284 285 287 289 290 291 291 295 298 300 300 302 304 305 307 307 307 297 286 286 285 284 284
308 308 305 301 301 303 305 304 295 289 286 288 290 290 287 285 286 288 289 291 293 294 294 296 301 297 301 304 305 306 307 304 293 284 285 287 288 284
301 301 300 299 299 300 301 300 295 289 286 288 290 291 290 288 288 289 293 295 294 293 293 295 301 298 301 304 305 306 304 300 292 285 286 288 285 285
300 299 298 297 297 297 298 299 295 289 287 287 289 290 288 285 288 290 292 296 298 295 293 297 297 299 302 305 305 305 304 296 289 286 287 287 283 286
296 295 294 297 296 294 294 293 294 291 289 289 289 291 290 289 288 289 292 296 299 297 293 297 294 300 304 305 305 305 303 296 289 287 289 285 283 285
295 293 295 295 295 293 293 293 291 291 290 289 290 291 292 291 290 290 295 299 298 293 295 293 297 301 304 305 305 304 300 295 291 290 287 283 285 287
291 292 291 293 295 294 292 293 290 289 289 290 290 291 292 292 291 293 297 299 293 295 293 295 299 302 305 305 307 304 299 296 293 292 287 285 286 288
287 287 290 292 293 293 292 292 289 290 292 293 292 292 291 291 292 295 297 294 295 291 291 297 299 303 305 305 305 304 298 294 294 291 288 287 288 289
286 288 291 294 293 292 292 292 291 290 290 293 293 292 292 294 297 297 296 293 293 288 293 297 300 304 306 306 304 301 297 294 291 290 290 290 292 291
285 287 288 290 292 291 290 291 291 289 289 292 294 295 297 299 299 296 293 292 286 290 297 300 302 305 306 305 302 299 298 292 289 288 289 288 288 291
285 286 287 289 290 292 293 293 293 290 292 291 293 296 298 299 298 295 292 287 287 295 298 300 303 304 304 303 301 300 296 292 292 292 293 294 297 300